Weather History for KGON - November, 2013

Change the Weather History Date:

Friday, November 22, 2013

  Actual Average Record
Temperature  
Mean Temperature 52 °F -  
Max Temperature 53 °F 47 °F 62 °F (1963)
Min Temperature 50 °F 31 °F 14 °F (1987)
Degree Days  
Heating Degree Days 14    
Growing Degree Days 2 (Base 50)    
Moisture  
Dew Point 48 °F    
Average Humidity 85    
Maximum Humidity 96    
Minimum Humidity 71    
Precipitation  
Precipitation 0.03 in - - ()
Sea Level Pressure  
Sea Level Pressure 30.12 in    
Wind  
Wind Speed 7 mph (SW)    
Max Wind Speed 15 mph    
Max Gust Speed 23 mph    
Visibility 7 miles    
Events Rain    
Averages and records for this station are not official NWS values.
T = Trace of Precipitation, MM = Missing Value Source: NWS Daily Summary

Daily Weather History Graph

Daily Weather History Graph

Search for Another Location

Airport or City:

Trip Planner

Search our weather history database for the weather conditions in past years. The results will help you decide how hot, cold, wet, or windy it might be!

Date:

Astronomy

Nov. 22, 2013 Rise Set
Actual Time 6:44 AM EST 4:23 PM EST
Civil Twilight 6:14 AM EST 4:53 PM EST
Nautical Twilight 5:40 AM EST 5:27 PM EST
Astronomical Twilight 5:07 AM EST 6:00 PM EST
Moon 8:53 PM EST (11/22) 10:25 AM EST (11/22)
Length of Visible Light 10h 38m
Length of Day
9h 38m
Waning Gibbous, 78% of the Moon is Illuminated
Nov 22
Waning Gibbous
Nov 25
Last Quarter
Dec 2
New
Dec 9
First Quarter
Dec 17
Full

Hourly Weather History & Observations

Time (EST) Temp. Dew Point Humidity Pressure Visibility Wind Dir Wind Speed Gust Speed Precip Events Conditions
12:46 AM 50.0 °F 41.0 °F 71% 30.38 in 10.0 mi SW 6.9 mph - N/A   Overcast
12:56 AM 50.0 °F 42.1 °F 74% 30.37 in 10.0 mi SSW 8.1 mph - N/A   Overcast
1:56 AM 51.1 °F 44.1 °F 77% 30.36 in 10.0 mi SW 9.2 mph - N/A   Overcast
2:20 AM 51.8 °F 44.6 °F 76% 30.34 in 10.0 mi SSW 9.2 mph - N/A   Overcast
2:56 AM 51.1 °F 45.0 °F 80% 30.33 in 10.0 mi SW 10.4 mph - N/A   Mostly Cloudy
3:56 AM 51.1 °F 44.1 °F 77% 30.30 in 10.0 mi WSW 5.8 mph - N/A   Overcast
4:56 AM 51.1 °F 44.1 °F 77% 30.27 in 10.0 mi WSW 5.8 mph - N/A   Overcast
5:11 AM 51.8 °F 44.6 °F 76% 30.27 in 10.0 mi WSW 4.6 mph - N/A   Overcast
5:27 AM 51.8 °F 44.6 °F 76% 30.28 in 10.0 mi West 4.6 mph - N/A   Overcast
5:56 AM 51.1 °F 44.1 °F 77% 30.27 in 10.0 mi Calm Calm - N/A   Overcast
6:25 AM 51.8 °F 44.6 °F 76% 30.26 in 10.0 mi WSW 3.5 mph - N/A   Overcast
6:56 AM 51.1 °F 44.1 °F 77% 30.25 in 10.0 mi SW 5.8 mph - 0.00 in Rain Light Rain
7:56 AM 50.0 °F 46.0 °F 86% 30.22 in 7.0 mi SSW 5.8 mph - 0.00 in Rain Light Rain
8:56 AM 52.0 °F 48.0 °F 86% 30.20 in 7.0 mi South 8.1 mph - 0.00 in Rain Light Rain
9:56 AM 52.0 °F 48.9 °F 89% 30.17 in 9.0 mi SSW 11.5 mph - 0.01 in   Overcast
10:56 AM 53.1 °F 51.1 °F 93% 30.12 in 7.0 mi SW 9.2 mph - 0.01 in Rain Light Rain
11:06 AM 53.6 °F 51.8 °F 94% 30.11 in 4.0 mi SW 10.4 mph - 0.00 in Rain Light Rain
11:32 AM 53.6 °F 51.8 °F 94% 30.09 in 2.5 mi SW 11.5 mph - 0.00 in Rain Light Rain
11:44 AM 53.6 °F 51.8 °F 94% 30.08 in 3.0 mi SW 15.0 mph - 0.00 in Rain Light Rain
11:56 AM 53.1 °F 52.0 °F 96% 30.07 in 3.0 mi SW 11.5 mph - 0.00 in Rain Light Rain
12:56 PM 53.1 °F 52.0 °F 96% 30.03 in 2.5 mi WSW 12.7 mph 18.4 mph 0.01 in Rain Light Rain
1:16 PM 53.6 °F 51.8 °F 94% 30.02 in 5.0 mi WSW 12.7 mph 23.0 mph 0.00 in   Overcast
1:56 PM 53.1 °F 51.1 °F 93% 30.01 in 8.0 mi West 15.0 mph 20.7 mph 0.00 in   Overcast
2:56 PM 53.1 °F 50.0 °F 89% 30.01 in 6.0 mi West 8.1 mph - N/A   Overcast
3:56 PM 52.0 °F 48.9 °F 89% 29.98 in 5.0 mi WSW 6.9 mph - N/A   Overcast
4:56 PM 52.0 °F 48.0 °F 86% 29.97 in 7.0 mi WSW 5.8 mph - N/A   Overcast
5:51 PM 51.8 °F 48.2 °F 88% 29.97 in 8.0 mi West 5.8 mph - N/A   Overcast
5:56 PM 52.0 °F 48.0 °F 86% 29.98 in 8.0 mi West 5.8 mph - N/A   Overcast
6:56 PM 50.0 °F 46.9 °F 89% 29.95 in 7.0 mi West 4.6 mph - N/A   Scattered Clouds
7:56 PM 50.0 °F 48.0 °F 93% 29.94 in 6.0 mi Calm Calm - N/A   Mostly Cloudy
8:56 PM 51.1 °F 48.0 °F 89% 29.92 in 6.0 mi Calm Calm - 0.00 in Rain Light Rain
9:56 PM 51.1 °F 48.9 °F 92% 29.89 in 4.0 mi Calm Calm - 0.00 in   Overcast
10:56 PM 53.1 °F 48.9 °F 86% 29.86 in 6.0 mi West 9.2 mph - N/A   Overcast
11:56 PM 53.1 °F 48.9 °F 86% 29.85 in 7.0 mi West 10.4 mph - N/A   Overcast